period_start,C,m1,H,J0,J1,J2,J3,J4,J5,JA,JB,JC,JD,JJ,JK,JN,#
2017-09-11 00:03:17,0.02,0.01,0.00,24.53,27.61,30.06,13.93,43.58,1030.79,2031.99,3585.00,3082.64,3544.10,600.05,601.25,1.21,0000 0000 0000 0000 000000
2017-09-11 00:08:18,0.01,0.01,0.00,24.54,27.62,30.06,13.98,43.52,1030.78,2031.96,3584.99,3082.15,3544.00,600.23,601.42,1.26,0000 0000 0000 0000 000000
2017-09-11 00:13:19,0.00,0.01,0.00,24.56,27.64,30.08,13.88,43.52,1030.78,2031.96,3584.96,3082.05,3544.00,599.76,601.03,1.31,0000 0000 0000 0000 000000
2017-09-11 00:18:20,0.01,0.01,0.00,24.57,27.65,30.10,14.00,43.57,1030.79,2031.92,3584.65,3082.02,3543.98,600.06,601.24,1.36,0000 0000 0000 0000 000000
2017-09-11 00:23:22,-0.00,0.01,0.00,24.58,27.67,30.10,13.97,43.50,1030.78,2031.84,3584.40,3082.01,3543.91,600.03,601.10,1.41,0000 0000 0000 0000 000000
2017-09-11 00:28:23,0.01,0.01,0.00,24.57,27.68,30.11,13.89,43.47,1030.79,2031.88,3584.05,3082.00,3543.74,599.93,600.95,1.46,0000 0000 0000 0000 000000
2017-09-11 00:33:25,-0.03,0.01,0.00,24.57,27.70,30.13,13.96,43.52,1030.78,2031.59,3584.00,3081.99,3543.15,600.16,601.25,1.51,0000 0000 0000 0000 000000
2017-09-11 00:38:26,-0.03,0.01,0.00,24.61,27.71,30.14,13.97,43.36,1030.78,2031.24,3583.99,3081.97,3543.00,599.96,601.08,1.56,0000 0000 0000 0000 000000
2017-09-11 00:43:27,-0.00,0.01,0.00,24.63,27.72,30.15,13.97,43.62,1030.78,2031.16,3583.99,3081.91,3543.00,599.67,600.75,1.61,0000 0000 0000 0000 000000
2017-09-11 00:48:28,0.01,0.01,0.00,24.63,27.74,30.16,14.00,43.63,1030.78,2031.06,3583.91,3081.66,3542.99,600.02,601.09,1.66,0000 0000 0000 0000 000000
2017-09-11 00:53:30,0.00,0.01,0.00,24.66,27.75,30.18,13.95,43.55,1030.78,2031.04,3583.75,3081.48,3542.97,600.12,600.98,1.71,0000 0000 0000 0000 000000
2017-09-11 00:58:31,0.02,0.01,0.00,24.67,27.77,30.18,13.96,43.52,1030.78,2031.06,3583.32,3081.28,3542.72,600.34,601.32,1.76,0000 0000 0000 0000 000000
2017-09-11 01:03:32,0.01,0.01,0.00,24.68,27.77,30.20,13.91,43.74,1030.78,2031.00,3583.01,3081.01,3542.06,600.04,600.93,1.81,0000 0000 0000 0000 000000
2017-09-11 01:08:34,0.00,0.01,0.00,24.70,27.80,30.21,13.96,43.62,1030.78,2031.00,3583.00,3081.00,3542.00,600.14,601.02,1.86,0000 0000 0000 0000 000000
2017-09-11 01:13:35,0.00,0.01,0.00,24.71,27.81,30.23,13.92,43.58,1030.76,2031.00,3583.00,3081.00,3542.00,599.93,600.80,1.91,0000 0000 0000 0000 000000
2017-09-11 01:18:36,0.00,0.01,0.00,24.71,27.83,30.24,13.83,43.45,1030.76,2030.99,3582.88,3080.94,3541.87,599.62,600.39,1.96,0000 0000 0000 0000 000000
2017-09-11 01:23:37,0.02,0.01,0.00,24.72,27.85,30.25,13.95,43.56,1030.78,2030.98,3582.67,3080.78,3541.34,600.16,601.01,2.01,0000 0000 0000 0000 000000
2017-09-11 01:28:39,0.02,0.01,0.00,24.75,27.87,30.27,13.92,43.50,1030.78,2030.97,3582.08,3080.26,3541.03,600.12,600.94,2.06,0000 0000 0000 0000 000000
2017-09-11 01:33:40,-0.00,0.01,0.00,24.74,27.88,30.27,14.00,43.48,1030.78,2030.95,3582.01,3080.11,3541.01,600.57,601.43,2.11,0000 0000 0000 0000 000000
2017-09-11 01:38:41,-0.01,0.01,0.00,24.75,27.90,30.28,13.96,43.56,1030.77,2030.75,3581.99,3080.01,3540.99,600.20,600.98,2.16,0000 0000 0000 0000 000000
2017-09-11 01:43:42,-0.04,0.01,0.00,24.76,27.90,30.29,13.92,43.60,1030.78,2030.28,3581.93,3080.00,3540.91,599.80,600.56,2.21,0000 0000 0000 0000 000000
2017-09-11 01:48:44,0.02,0.01,0.00,24.79,27.92,30.31,13.88,43.58,1030.76,2030.28,3581.73,3080.00,3540.74,599.81,600.46,2.26,0000 0000 0000 0000 000000
2017-09-11 01:53:45,-0.00,0.01,0.00,24.79,27.92,30.31,13.93,43.51,1030.76,2030.24,3581.46,3079.99,3540.36,599.94,600.58,2.31,0000 0000 0000 0000 000000
2017-09-11 01:58:46,0.00,0.01,0.00,24.82,27.95,30.33,14.00,43.45,1030.78,2030.23,3581.08,3079.98,3540.09,600.08,600.54,2.36,0000 0000 0000 0000 000000
2017-09-11 02:03:48,-0.00,0.01,0.00,24.77,27.95,30.35,13.95,43.61,1030.78,2030.10,3581.02,3079.88,3540.00,600.15,600.82,2.41,0000 0000 0000 0000 000000
2017-09-11 02:08:49,0.01,0.01,0.00,24.80,27.97,30.35,13.99,43.67,1030.78,2030.01,3581.00,3079.30,3539.99,599.96,600.70,2.46,0000 0000 0000 0000 000000
2017-09-11 02:13:50,0.00,0.01,0.00,24.81,27.98,30.37,13.86,43.48,1030.78,2030.00,3580.98,3079.12,3539.99,599.90,600.43,2.51,0000 0000 0000 0000 000000
2017-09-11 02:18:51,0.00,0.01,0.00,24.82,28.00,30.38,13.96,43.50,1030.77,2030.00,3580.91,3079.03,3539.83,599.91,600.67,2.56,0000 0000 0000 0000 000000
2017-09-11 02:23:52,0.02,0.01,0.00,24.83,28.01,30.38,13.94,43.62,1030.75,2030.00,3580.29,3079.00,3539.21,600.19,600.75,2.61,0000 0000 0000 0000 000000
2017-09-11 02:28:54,0.00,0.01,0.00,24.83,28.02,30.39,13.96,43.63,1030.70,2030.00,3580.05,3079.00,3539.03,600.37,600.90,2.66,0000 0000 0000 0000 000000
2017-09-11 02:33:55,0.00,0.01,0.00,24.80,28.03,30.40,13.94,43.55,1030.68,2029.99,3580.01,3079.00,3539.00,600.29,600.84,2.71,0000 0000 0000 0000 000000
2017-09-11 02:38:57,0.00,0.01,0.00,24.82,28.05,30.41,13.96,43.64,1030.72,2029.99,3580.00,3078.99,3538.99,599.78,600.27,2.76,0000 0000 0000 0000 000000
2017-09-11 02:43:58,0.00,0.01,0.00,24.86,28.05,30.42,13.92,43.65,1030.75,2029.98,3579.97,3078.88,3538.95,599.58,600.09,2.81,0000 0000 0000 0000 000000
2017-09-11 02:48:59,0.00,0.01,0.00,24.80,28.07,30.42,13.92,43.67,1030.76,2029.97,3579.94,3078.70,3538.81,599.67,600.40,2.86,0000 0000 0000 0000 000000
2017-09-11 02:54:01,0.03,0.01,0.00,24.82,28.08,30.43,13.90,43.59,1030.73,2029.93,3579.32,3078.26,3538.25,599.93,600.56,2.91,0000 0000 0000 0000 000000
2017-09-11 02:59:02,0.00,0.01,0.00,24.87,28.10,30.46,13.93,43.64,1030.73,2029.90,3579.08,3078.05,3538.05,599.91,600.41,2.96,0000 0000 0000 0000 000000
2017-09-11 03:04:04,-0.03,0.01,0.00,24.88,28.10,30.44,13.91,43.61,1030.69,2029.53,3579.01,3078.00,3538.00,600.26,600.69,3.02,0000 0000 0000 0000 000000
2017-09-11 03:09:05,-0.02,0.01,0.00,24.84,28.11,30.47,13.95,43.58,1030.60,2029.30,3579.00,3078.00,3538.00,599.98,600.55,3.07,0000 0000 0000 0000 000000
2017-09-11 03:14:06,-0.01,0.01,0.00,24.86,28.12,30.48,14.00,43.65,1030.50,2029.21,3578.99,3077.99,3537.98,599.98,600.35,3.12,0000 0000 0000 0000 000000
2017-09-11 03:19:07,-0.00,0.01,0.00,24.86,28.13,30.50,13.94,43.63,1030.57,2029.10,3578.90,3077.99,3537.94,600.27,600.71,3.17,0000 0000 0000 0000 000000
2017-09-11 03:24:09,0.02,0.01,0.00,24.86,28.15,30.48,13.94,43.58,1030.67,2029.13,3578.45,3077.97,3537.69,599.66,600.18,3.22,0000 0000 0000 0000 000000
2017-09-11 03:29:10,0.00,0.01,0.00,24.87,28.15,30.49,13.95,43.45,1030.75,2029.08,3578.16,3077.93,3537.14,599.93,600.50,3.27,0000 0000 0000 0000 000000
2017-09-11 03:34:11,0.00,0.01,0.00,24.86,28.16,30.50,13.93,43.69,1030.77,2029.03,3578.03,3077.88,3537.06,599.85,600.54,3.32,0000 0000 0000 0000 000000
2017-09-11 03:39:12,0.01,0.01,0.00,24.86,28.17,30.51,13.92,43.64,1030.75,2029.03,3578.01,3077.53,3537.01,600.12,600.63,3.37,0000 0000 0000 0000 000000
2017-09-11 03:44:14,0.00,0.01,0.00,24.87,28.17,30.51,13.89,43.49,1030.76,2029.01,3578.00,3077.12,3537.00,599.69,600.17,3.42,0000 0000 0000 0000 000000
2017-09-11 03:49:15,0.00,0.01,0.00,24.89,28.17,30.53,13.89,43.62,1030.77,2029.00,3577.97,3077.03,3536.98,600.06,600.61,3.47,0000 0000 0000 0000 000000
2017-09-11 03:54:16,0.01,0.01,0.00,24.88,28.18,30.53,13.91,43.55,1030.77,2029.00,3577.61,3077.00,3536.89,599.73,600.41,3.52,0000 0000 0000 0000 000000
2017-09-11 03:59:18,0.00,0.01,0.00,24.90,28.20,30.54,13.90,43.68,1030.77,2029.00,3577.13,3077.00,3536.60,599.98,600.42,3.57,0000 0000 0000 0000 000000
2017-09-11 04:04:19,0.00,0.01,0.00,24.89,28.20,30.55,14.01,43.78,1030.78,2029.00,3577.04,3077.00,3536.23,600.35,600.75,3.62,0000 0000 0000 0000 000000
2017-09-11 04:09:20,0.00,0.01,0.00,24.87,28.20,30.55,13.97,43.79,1030.78,2029.00,3577.02,3077.00,3536.23,600.17,600.86,3.67,0000 0000 0000 0000 000000
2017-09-11 04:14:21,0.00,0.01,0.00,24.89,28.20,30.55,13.90,43.50,1030.78,2029.00,3577.02,3077.00,3536.07,599.75,600.27,3.72,0000 0000 0000 0000 000000
2017-09-11 04:19:22,0.00,0.01,0.00,24.88,28.22,30.56,13.94,43.56,1030.77,2029.00,3577.00,3077.00,3536.01,599.92,600.47,3.77,0000 0000 0000 0000 000000
2017-09-11 04:24:24,0.00,0.01,0.00,24.90,28.22,30.56,13.81,43.56,1030.77,2029.00,3577.00,3076.99,3536.00,599.55,599.98,3.82,0000 0000 0000 0000 000000
2017-09-11 04:29:25,0.00,0.01,0.00,24.92,28.22,30.58,13.97,43.63,1030.77,2029.00,3577.00,3076.96,3536.00,599.79,600.12,3.87,0000 0000 0000 0000 000000
2017-09-11 04:34:26,0.00,0.01,0.00,24.93,28.22,30.57,13.99,43.68,1030.77,2029.00,3576.97,3076.94,3536.00,600.25,600.57,3.92,0000 0000 0000 0000 000000
2017-09-11 04:39:27,0.01,0.01,0.00,24.94,28.22,30.58,13.91,43.59,1030.72,2029.00,3576.85,3076.80,3535.99,599.80,600.25,3.97,0000 0000 0000 0000 000000
2017-09-11 04:44:28,0.01,0.01,0.00,24.93,28.24,30.57,13.90,43.49,1030.60,2028.98,3576.39,3076.54,3535.98,599.87,600.22,4.02,0000 0000 0000 0000 000000
2017-09-11 04:49:30,0.01,0.01,0.00,24.92,28.25,30.57,13.97,43.72,1030.43,2028.99,3576.11,3076.28,3535.95,599.89,600.19,4.07,0000 0000 0000 0000 000000
2017-09-11 04:54:31,0.00,0.01,0.00,24.94,28.25,30.58,13.90,43.77,1030.32,2028.98,3576.03,3076.13,3535.79,600.04,600.13,4.12,0000 0000 0000 0000 000000
2017-09-11 04:59:32,-0.00,0.01,0.00,24.96,28.25,30.58,13.89,43.73,1030.31,2028.97,3576.00,3076.06,3535.41,599.81,599.97,4.17,0000 0000 0000 0000 000000
2017-09-11 05:04:33,0.00,0.01,0.00,24.99,28.25,30.61,13.97,43.88,1030.30,2028.98,3576.00,3076.04,3535.29,600.38,600.36,4.22,0000 0000 0000 0000 000000
2017-09-11 05:09:34,0.00,0.01,0.00,25.01,28.26,30.59,13.89,43.72,1030.30,2028.98,3576.00,3076.03,3535.21,599.96,599.98,4.27,0000 0000 0000 0000 000000
2017-09-11 05:14:36,0.00,0.02,0.00,25.04,28.27,30.61,13.95,43.88,1030.30,2028.97,3576.00,3076.01,3535.02,600.26,600.20,4.32,0000 0000 0000 0000 000000
2017-09-11 05:19:37,-0.00,0.01,0.00,25.04,28.27,30.62,13.91,43.88,1030.31,2028.96,3576.00,3076.00,3535.01,599.84,599.68,4.37,0000 0000 0000 0000 000000
2017-09-11 05:24:39,0.00,0.01,0.00,25.07,28.29,30.61,13.89,43.93,1030.30,2028.93,3575.99,3076.00,3535.00,599.50,599.30,4.42,0000 0000 0000 0000 000000
2017-09-11 05:29:40,-0.00,0.01,0.00,25.09,28.30,30.62,13.97,43.86,1030.30,2028.85,3575.95,3076.00,3535.00,600.43,600.08,4.47,0000 0000 0000 0000 000000
2017-09-11 05:34:41,-0.00,0.01,0.00,25.11,28.30,30.65,13.91,43.80,1030.30,2028.78,3575.59,3075.99,3534.98,600.34,600.00,4.52,0000 0000 0000 0000 000000
2017-09-11 05:39:42,-0.01,0.01,0.00,25.13,28.32,30.66,13.93,43.73,1030.30,2028.63,3575.42,3075.97,3534.94,600.17,599.91,4.57,0000 0000 0000 0000 000000
2017-09-11 05:44:43,-0.01,0.01,0.00,25.14,28.32,30.67,14.00,43.94,1030.29,2028.38,3575.03,3075.96,3534.50,600.38,600.09,4.62,0000 0000 0000 0000 000000
2017-09-11 05:49:45,-0.00,0.01,0.00,25.16,28.35,30.68,14.03,43.77,1030.29,2028.18,3575.01,3075.81,3534.20,600.14,599.81,4.67,0000 0000 0000 0000 000000
2017-09-11 05:54:46,0.00,0.01,0.00,25.17,28.35,30.70,13.90,43.67,1030.29,2028.13,3575.00,3075.52,3534.03,600.00,599.61,4.72,0000 0000 0000 0000 000000
2017-09-11 05:59:47,0.01,0.01,0.00,25.20,28.37,30.72,13.94,43.91,1030.29,2028.08,3574.90,3075.11,3534.00,600.13,599.75,4.77,0000 0000 0000 0000 000000
2017-09-11 06:04:49,0.01,0.01,0.00,25.20,28.38,30.73,13.94,43.72,1030.29,2028.04,3574.38,3075.01,3533.98,600.12,599.74,4.82,0000 0000 0000 0000 000000
2017-09-11 06:09:50,-0.00,0.01,0.00,25.23,28.40,30.74,13.83,43.68,1030.28,2028.02,3574.15,3075.00,3533.98,600.18,599.73,4.87,0000 0000 0000 0000 000000
2017-09-11 06:14:51,0.00,0.01,0.00,25.24,28.41,30.75,13.89,43.80,1030.28,2028.01,3574.02,3075.00,3533.85,600.25,599.93,4.92,0000 0000 0000 0000 000000
2017-09-11 06:19:52,0.01,0.01,0.00,25.27,28.42,30.77,13.95,43.82,1030.28,2028.01,3574.00,3074.98,3533.16,600.03,599.42,4.97,0000 0000 0000 0000 000000
2017-09-11 06:24:54,0.00,0.01,0.00,25.27,28.44,30.78,13.90,43.42,1030.29,2028.00,3573.99,3074.96,3533.02,600.21,599.66,5.02,0000 0000 0000 0000 000000
2017-09-11 06:29:55,0.00,0.01,0.00,25.31,28.45,30.80,13.87,43.48,1030.25,2028.00,3573.94,3074.91,3533.00,599.98,599.36,5.07,0000 0000 0000 0000 000000
2017-09-11 06:34:56,0.03,0.02,0.00,25.30,28.47,30.81,13.93,43.52,1030.16,2028.00,3573.34,3074.25,3532.98,600.09,599.47,5.12,0000 0000 0000 0000 000000
2017-09-11 06:39:58,0.00,0.02,0.00,25.31,28.48,30.83,13.94,43.63,1030.08,2028.00,3573.01,3074.04,3532.92,600.14,599.36,5.17,0000 0000 0000 0000 000000
2017-09-11 06:44:59,0.01,0.02,0.00,25.35,28.50,30.84,13.90,43.62,1029.99,2027.99,3573.00,3074.02,3532.55,599.85,599.04,5.22,0000 0000 0000 0000 000000
2017-09-11 06:50:00,-0.00,0.02,0.00,25.35,28.51,30.85,13.88,43.56,1029.87,2027.98,3572.98,3074.00,3532.07,599.93,598.87,5.27,0000 0000 0000 0000 000000
2017-09-11 06:55:01,0.00,0.02,0.00,25.38,28.52,30.86,13.81,43.60,1029.87,2027.97,3572.84,3073.98,3532.00,599.69,598.78,5.32,0000 0000 0000 0000 000000
2017-09-11 07:00:02,0.00,0.02,0.00,25.40,28.54,30.88,13.84,43.71,1029.86,2027.95,3572.39,3073.95,3532.00,599.66,598.60,5.37,0000 0000 0000 0000 000000
2017-09-11 07:05:04,-0.02,0.02,0.00,25.43,28.55,30.89,13.85,43.66,1029.95,2027.76,3572.03,3073.85,3531.99,600.03,598.85,5.43,0000 0000 0000 0000 000000
2017-09-11 07:10:05,0.02,0.02,0.00,25.46,28.57,30.91,13.89,43.90,1029.85,2027.75,3572.01,3073.50,3531.92,599.88,598.72,5.48,0000 0000 0000 0000 000000
2017-09-11 07:15:07,-0.01,0.02,0.00,25.48,28.58,30.92,13.88,43.82,1029.83,2027.41,3572.00,3073.10,3531.43,599.75,598.58,5.53,0000 0000 0000 0000 000000
2017-09-11 07:20:08,-0.00,0.02,0.00,25.48,28.60,30.93,13.92,43.86,1029.82,2027.25,3571.90,3073.02,3531.05,600.09,598.80,5.58,0000 0000 0000 0000 000000
2017-09-11 07:25:09,-0.01,0.02,0.00,25.50,28.61,30.95,13.85,43.54,1029.81,2027.13,3571.41,3073.00,3531.01,599.94,598.73,5.63,0000 0000 0000 0000 000000
2017-09-11 07:30:10,0.00,0.02,0.00,25.51,28.62,30.97,13.89,43.63,1029.80,2027.06,3571.05,3072.99,3531.00,599.72,598.37,5.68,0000 0000 0000 0000 000000
2017-09-11 07:35:12,-0.00,0.02,0.00,25.54,28.65,30.98,13.91,43.52,1029.81,2027.01,3571.00,3072.98,3530.94,599.87,598.51,5.73,0000 0000 0000 0000 000000
2017-09-11 07:40:13,0.01,0.02,0.00,25.54,28.65,31.00,13.86,43.53,1029.80,2027.00,3570.96,3072.81,3530.47,599.88,598.54,5.78,0000 0000 0000 0000 000000
2017-09-11 07:45:15,0.03,0.02,0.00,25.56,28.67,31.01,13.89,43.35,1029.81,2027.00,3570.47,3072.23,3530.03,600.42,599.02,5.83,0000 0000 0000 0000 000000
2017-09-11 07:50:16,0.00,0.02,0.00,25.58,28.69,31.04,13.91,43.55,1029.81,2027.00,3570.14,3072.07,3530.01,600.47,599.11,5.88,0000 0000 0000 0000 000000
2017-09-11 07:55:17,0.00,0.02,0.00,25.59,28.70,31.04,13.91,43.55,1029.82,2027.00,3570.00,3072.00,3530.00,600.01,598.52,5.93,0000 0000 0000 0000 000000
2017-09-11 08:00:18,0.00,0.02,0.00,25.58,28.71,31.06,13.84,43.49,1029.81,2027.00,3570.00,3072.00,3529.96,599.70,598.38,5.98,0000 0000 0000 0000 000000
2017-09-11 08:05:19,0.01,0.02,0.00,25.62,28.72,31.08,13.92,43.56,1029.81,2027.00,3569.86,3072.00,3529.54,599.97,598.39,6.03,0000 0000 0000 0000 000000
2017-09-11 08:10:21,0.01,0.02,0.00,25.61,28.74,31.09,13.87,43.50,1029.81,2026.99,3569.23,3071.96,3529.05,599.98,598.45,6.08,0000 0000 0000 0000 000000
2017-09-11 08:15:22,0.01,0.02,0.00,25.61,28.75,31.10,13.85,43.42,1029.81,2026.98,3569.02,3071.68,3529.00,599.66,598.13,6.13,0000 0000 0000 0000 000000
2017-09-11 08:20:23,0.01,0.02,0.00,25.61,28.76,31.11,13.86,43.34,1029.83,2026.98,3568.99,3071.28,3528.99,599.59,598.15,6.18,0000 0000 0000 0000 000000
2017-09-11 08:25:25,0.00,0.02,0.00,25.63,28.77,31.12,13.87,43.49,1029.83,2026.95,3568.90,3071.04,3528.90,600.09,598.54,6.23,0000 0000 0000 0000 000000
2017-09-11 08:30:26,0.01,0.02,0.00,25.64,28.78,31.13,13.90,43.37,1029.83,2026.94,3568.37,3071.00,3528.47,600.00,598.44,6.28,0000 0000 0000 0000 000000
2017-09-11 08:35:28,0.00,0.02,0.00,25.62,28.80,31.15,13.87,43.43,1029.84,2026.94,3568.01,3071.00,3528.06,600.04,598.53,6.33,0000 0000 0000 0000 000000
2017-09-11 08:40:29,-0.00,0.02,0.00,25.62,28.80,31.17,13.91,43.53,1029.86,2026.94,3568.00,3071.00,3528.00,600.12,598.69,6.38,0000 0000 0000 0000 000000
2017-09-11 08:45:30,-0.02,0.02,0.00,25.61,28.82,31.18,13.91,43.36,1029.85,2026.77,3567.97,3070.98,3527.99,600.53,599.08,6.43,0000 0000 0000 0000 000000
2017-09-11 08:50:32,-0.00,0.02,0.00,25.61,28.82,31.20,13.88,43.54,1029.95,2026.55,3567.48,3070.89,3527.91,599.84,598.35,6.48,0000 0000 0000 0000 000000
2017-09-11 08:55:33,0.00,0.02,0.00,25.60,28.82,31.20,13.90,43.34,1029.89,2026.25,3567.04,3070.35,3527.23,600.22,598.67,6.53,0000 0000 0000 0000 000000
2017-09-11 09:00:34,0.00,0.02,0.00,25.60,28.84,31.20,13.91,43.44,1029.99,2026.14,3566.98,3070.05,3527.01,599.76,598.33,6.58,0000 0000 0000 0000 000000
2017-09-11 09:05:36,0.01,0.02,0.00,25.58,28.85,31.20,13.90,43.52,1030.08,2026.12,3566.76,3070.00,3527.00,599.63,598.23,6.63,0000 0000 0000 0000 000000
2017-09-11 09:10:37,0.01,0.02,0.00,25.56,28.85,31.22,13.93,43.54,1030.12,2026.09,3566.29,3070.00,3527.00,599.97,598.75,6.68,0000 0000 0000 0000 000000
2017-09-11 09:15:38,0.00,0.02,0.00,25.55,28.85,31.22,13.90,43.43,1030.13,2026.07,3566.05,3070.00,3526.90,600.00,598.86,6.73,0000 0000 0000 0000 000000
2017-09-11 09:20:40,0.00,0.02,0.00,25.54,28.85,31.23,13.89,43.48,1030.18,2026.06,3566.00,3069.98,3526.45,599.84,598.74,6.78,0000 0000 0000 0000 000000
2017-09-11 09:25:41,0.01,0.02,0.00,25.55,28.86,31.23,13.87,43.36,1030.20,2026.08,3565.98,3069.98,3526.20,600.01,598.93,6.83,0000 0000 0000 0000 000000
2017-09-11 09:30:42,0.01,0.02,0.00,25.54,28.87,31.23,13.86,43.38,1030.11,2026.02,3565.70,3069.70,3526.01,599.88,598.75,6.88,0000 0000 0000 0000 000000
2017-09-11 09:35:43,0.01,0.03,0.00,25.51,28.87,31.23,13.88,43.48,1030.20,2026.01,3565.16,3069.25,3526.00,599.66,598.56,6.93,0000 0000 0000 0000 000000
2017-09-11 09:40:44,0.00,0.03,0.00,25.51,28.87,31.22,13.93,43.54,1030.13,2026.01,3565.01,3069.07,3525.98,600.37,599.24,6.98,0000 0000 0000 0000 000000
2017-09-11 09:45:45,0.00,0.03,0.00,25.49,28.87,31.23,13.97,43.54,1030.20,2026.02,3564.99,3069.01,3525.82,600.17,599.19,7.03,0000 0000 0000 0000 000000
2017-09-11 09:50:46,0.01,0.03,0.00,25.50,28.87,31.22,13.89,43.45,1030.02,2026.02,3564.91,3069.00,3525.24,599.60,598.41,7.08,0000 0000 0000 0000 000000
2017-09-11 09:55:48,0.01,0.03,0.00,25.48,28.87,31.23,13.91,43.46,1029.89,2026.03,3564.27,3069.00,3525.04,600.12,598.86,7.13,0000 0000 0000 0000 000000
2017-09-11 10:00:49,-0.00,0.03,0.00,25.46,28.87,31.23,13.86,43.41,1029.92,2026.02,3564.03,3068.99,3525.01,599.89,598.76,7.18,0000 0000 0000 0000 000000
2017-09-11 10:05:51,-0.00,0.03,0.00,25.45,28.87,31.24,13.88,43.51,1029.99,2026.02,3564.00,3068.97,3525.00,599.93,598.97,7.23,0000 0000 0000 0000 000000
2017-09-11 10:10:51,0.00,0.03,0.00,25.44,28.87,31.22,13.86,43.62,1029.99,2026.03,3563.98,3068.88,3524.97,599.86,598.75,7.28,0000 0000 0000 0000 000000
2017-09-11 10:15:53,0.01,0.03,0.00,25.44,28.86,31.23,13.88,43.48,1030.11,2026.02,3563.71,3068.53,3524.80,599.89,598.84,7.33,0000 0000 0000 0000 000000
2017-09-11 10:20:54,0.03,0.03,0.00,25.43,28.85,31.21,13.88,43.53,1030.10,2026.02,3563.07,3068.12,3524.16,600.01,598.99,7.38,0000 0000 0000 0000 000000
2017-09-11 10:25:55,0.00,0.03,0.00,25.41,28.85,31.20,13.90,43.60,1029.98,2026.03,3563.00,3068.01,3524.02,600.06,599.10,7.43,0000 0000 0000 0000 000000
2017-09-11 10:30:56,0.01,0.03,0.00,25.40,28.85,31.21,13.92,43.51,1029.95,2026.07,3562.97,3068.00,3524.00,600.14,599.03,7.48,0000 0000 0000 0000 000000
2017-09-11 10:35:58,0.01,0.03,0.00,25.40,28.85,31.21,13.86,43.40,1029.90,2026.10,3562.48,3068.00,3523.99,599.58,598.62,7.53,0000 0000 0000 0000 000000
2017-09-11 10:40:59,0.01,0.03,0.00,25.40,28.85,31.21,13.91,43.43,1029.95,2026.16,3562.02,3068.00,3523.64,600.25,599.26,7.58,0000 0000 0000 0000 000000
2017-09-11 10:46:00,0.02,0.03,0.00,25.38,28.85,31.19,13.92,43.47,1029.99,2026.27,3561.94,3067.92,3523.13,599.97,599.15,7.63,0000 0000 0000 0000 000000
2017-09-11 10:51:02,0.01,0.03,0.00,25.36,28.83,31.19,13.98,43.52,1029.92,2026.20,3561.45,3067.57,3523.00,600.47,599.56,7.68,0000 0000 0000 0000 000000
2017-09-11 10:56:03,0.01,0.03,0.00,25.36,28.82,31.19,13.88,43.52,1029.88,2026.22,3561.01,3067.12,3522.99,599.90,598.89,7.74,0000 0000 0000 0000 000000
2017-09-11 11:01:04,0.02,0.04,0.00,25.34,28.82,31.17,13.88,43.49,1029.83,2026.32,3560.97,3067.01,3522.64,599.82,599.03,7.79,0000 0000 0000 0000 000000
2017-09-11 11:06:05,0.05,0.04,0.00,25.33,28.82,31.17,13.88,43.44,1029.89,2026.50,3560.33,3067.00,3522.06,599.92,599.06,7.84,0000 0000 0000 0000 000000
2017-09-11 11:11:07,0.01,0.04,0.00,25.33,28.82,31.16,13.89,43.44,1029.83,2026.77,3560.02,3066.99,3522.01,599.99,599.03,7.89,0000 0000 0000 0000 000000
2017-09-11 11:16:08,0.00,0.04,0.00,25.31,28.80,31.17,13.88,43.47,1029.81,2026.72,3559.87,3066.81,3521.95,599.96,599.11,7.94,0000 0000 0000 0000 000000
2017-09-11 11:21:09,0.05,0.04,0.00,25.30,28.80,31.15,13.92,43.54,1029.82,2026.83,3559.23,3066.27,3521.46,599.99,599.22,7.99,0000 0000 0000 0000 000000
2017-09-11 11:26:11,0.00,0.04,0.00,25.29,28.80,31.15,13.93,43.38,1029.82,2026.87,3559.00,3066.04,3521.05,599.89,598.82,8.04,0000 0000 0000 0000 000000
2017-09-11 11:31:12,0.02,0.04,0.00,25.29,28.79,31.14,13.92,43.48,1029.81,2026.94,3558.37,3066.00,3521.00,599.95,598.97,8.09,0000 0000 0000 0000 000000
2017-09-11 11:36:14,0.01,0.04,0.00,25.28,28.77,31.13,13.90,43.32,1029.80,2026.95,3558.02,3065.99,3520.84,599.82,598.99,8.14,0000 0000 0000 0000 000000
2017-09-11 11:41:15,0.00,0.04,0.00,25.28,28.77,31.12,13.88,43.38,1029.80,2026.97,3558.00,3065.97,3520.52,599.79,598.97,8.19,0000 0000 0000 0000 000000
2017-09-11 11:46:16,0.01,0.04,0.00,25.26,28.77,31.12,13.95,43.48,1029.80,2026.97,3557.94,3065.86,3520.06,600.15,599.38,8.24,0000 0000 0000 0000 000000
2017-09-11 11:51:18,0.00,0.04,0.00,25.24,28.76,31.12,13.90,43.44,1029.80,2026.98,3557.73,3065.80,3520.02,600.03,599.33,8.29,0000 0000 0000 0000 000000
2017-09-11 11:56:19,0.01,0.04,0.00,25.23,28.75,31.11,13.97,43.45,1029.80,2026.98,3557.27,3065.60,3520.00,600.15,599.39,8.34,0000 0000 0000 0000 000000
2017-09-11 12:01:21,0.01,0.05,0.00,25.21,28.75,31.10,13.91,43.33,1029.80,2026.97,3557.03,3065.36,3520.00,599.78,599.07,8.39,0000 0000 0000 0000 000000
2017-09-11 12:06:22,0.01,0.05,0.00,25.22,28.74,31.10,13.92,43.35,1029.78,2026.98,3557.00,3065.11,3519.99,600.21,599.53,8.44,0000 0000 0000 0000 000000
2017-09-11 12:11:23,0.00,0.05,0.00,25.20,28.73,31.09,13.91,43.46,1029.73,2026.98,3556.99,3065.09,3519.99,599.95,599.23,8.49,0000 0000 0000 0000 000000
2017-09-11 12:16:25,0.00,0.05,0.00,25.20,28.72,31.08,13.95,43.46,1029.45,2026.99,3556.97,3065.09,3519.98,600.13,599.28,8.54,0000 0000 0000 0000 000000
2017-09-11 12:21:26,0.00,0.05,0.00,25.19,28.72,31.07,13.89,43.34,1029.38,2026.99,3556.85,3065.05,3519.96,600.02,599.34,8.59,0000 0000 0000 0000 000000
2017-09-11 12:26:27,0.01,0.05,0.00,25.16,28.71,31.05,13.89,43.38,1029.34,2026.99,3556.16,3065.02,3519.67,600.08,599.20,8.64,0000 0000 0000 0000 000000
2017-09-11 12:31:28,0.00,0.05,0.00,25.16,28.70,31.05,13.96,43.67,1029.33,2026.99,3556.03,3065.01,3519.46,600.04,599.18,8.69,0000 0000 0000 0000 000000
2017-09-11 12:36:29,0.00,0.05,0.00,25.15,28.70,31.02,13.92,43.53,1029.32,2026.99,3556.00,3065.01,3519.31,600.04,599.22,8.74,0000 0000 0000 0000 000000
2017-09-11 12:41:31,0.00,0.05,0.00,25.15,28.68,31.04,13.92,43.68,1029.32,2027.00,3556.00,3065.00,3519.13,600.23,599.44,8.79,0000 0000 0000 0000 000000
2017-09-11 12:46:32,0.00,0.05,0.00,25.14,28.67,31.02,13.86,43.48,1029.32,2027.00,3555.98,3065.00,3519.02,599.90,599.03,8.84,0000 0000 0000 0000 000000
2017-09-11 12:51:33,0.00,0.05,0.00,25.12,28.67,31.01,13.86,43.63,1029.32,2027.00,3555.95,3065.00,3519.00,599.67,598.91,8.89,0000 0000 0000 0000 000000
2017-09-11 12:56:34,0.00,0.05,0.00,25.11,28.65,31.00,13.93,43.47,1029.32,2027.00,3555.69,3065.00,3519.00,599.68,598.89,8.94,0000 0000 0000 0000 000000
2017-09-11 13:01:36,0.00,0.05,0.00,25.10,28.65,31.00,13.92,43.50,1029.32,2027.00,3555.15,3065.00,3519.00,599.95,599.10,8.99,0000 0000 0000 0000 000000